Regional Weather Roundup
Issued by NWS Grand Forks, ND

Home | Current Version | Previous Version | Text Only | Print | Product List | Glossary Off
Versions: 1 2 3 4 5 6 7 8 9 10 11 12 13 14 15 16 17 18 19 20 21 22 23 24 25 26 27 28 29 30 31 32 33 34 35 36 37 38 39 40 41 42 43 44 45 46 47 48 49 50

000
ASUS43 KFGF 191310
RWRFGF
PRAIRIE TO PINES  WEATHER ROUNDUP
NATIONAL WEATHER SERVICE EASTERN NORTH DAKOTA/GRAND FORKS ND
700 AM CST MON FEB 19 2018

 **SATELLITE DATA USED TO AUGMENT SKY COVER AT AUTOMATED STATIONS**
 *****  WEATHER ACROSS EASTERN NORTH DAKOTA  *****

CITY           SKY/WX    TMP DP  RH WIND       PRES   REMARKS
GRAND FORKS    CLOUDY     0  -6  76 N14       30.24R WCI -19
GRAND FRKS AFB FAIR      -1  -8  69 N14       30.24R WCI -19
GRAND FRKS NWS   N/A      0  -4  83 N13       30.21R WCI -18
DEVILS LAKE    FAIR      -8 -13  78 N8        30.20F WCI -24
FARGO          CLOUDY     5  -2  72 N20       30.16R WCI -15
WAHPETON ARPT  CLOUDY    10   1  67 N20       30.10S WCI  -8
$$

 ***** WEATHER ACROSS CENTRAL AND WESTERN NORTH DAKOTA  *****

CITY           SKY/WX    TMP DP  RH WIND       PRES   REMARKS
BISMARCK       MOCLDY     2  -6  69 NE9       30.17R WCI -13
MINOT          FAIR     -11 -18  71 NW6       30.18S WCI -25
JAMESTOWN      FAIR       2  -4  76 N16       30.13F WCI -18
MINOT AFB      FAIR     -15 -21  72 CALM      30.18S
GARRISON         N/A     -8 -17  64 N5        30.16R WCI -19
WILLISTON      FAIR     -16 -20  82 CALM      30.18R
DICKINSON      CLOUDY    -1  -8  72 N6        30.06R WCI -13
HETTINGER      CLOUDY     0  -9  65 NE8       30.07R WCI -14
$$

 *****  OTHER AIRPORT OBSERVATIONS IN OUR AREA  *****

CITY           SKY/WX    TMP DP  RH WIND       PRES   REMARKS
WALHALLA       FAIR      -6 -11  77 NW8       30.26F WCI -21
GRAFTON AIRPOR NOT AVBL
VALLEY CITY AR NOT AVBL
CANDO          FAIR      -8 -13  77 N9        30.22F WCI -25
CAVALIER APRT    N/A     -6  -9  84 NW10      30.26F WCI -23
GWINNER          N/A      7   0  72 N18       30.11R WCI -12
SHEYENNE NWR     N/A      6  -2  69 N10       29.95  WCI  -9
ROLLA          FAIR      -9 -17  70 NW9       30.19S WCI -27
 ***** THE ABOVE OBSERVATIONS ARE NON NWS ARE NOT QUALITY
       CONTROLLED AND MAY MIS-REPORT RAIN FOR SNOW...
$$

  *****  WEATHER ACROSS NORTHERN MINNESOTA  *****

CITY           SKY/WX    TMP DP  RH WIND       PRES   REMARKS
FLAG ISLAND    FAIR      -8 -13  77 N3        30.21R
WARROAD        FAIR      -2  -9  71 N9        30.20R WCI -18
ROSEAU         NOT AVBL
HALLOCK        FAIR      -6 -11  77 N7        30.26R WCI -20
THF RVR FALLS  FAIR       0  -6  76 N14       30.20R WCI -19
BAUDETTE       FAIR      -3  -8  79 N6        30.17R WCI -15
WASKISH        FAIR       3   0  85 N6        30.15R WCI  -8
CROOKSTON      FAIR       1  -6  71 N13       30.22S WCI -16
STEPHEN NDAWN    N/A     -2  -9  71 N7          N/A  WCI -16
GREENBUSH NDAW   N/A     -6 -11  77 N3          N/A
$$
  *****  WEATHER ACROSS CENTRAL AND WEST MINNESOTA  *****

CITY           SKY/WX    TMP DP  RH WIND       PRES   REMARKS
FOSSTON        FAIR       1  -4  78 N12       30.13R WCI -15
BEMIDJI        FAIR       4  -2  77 N8        30.09R WCI  -9
PARK RAPIDS    CLOUDY     5  -1  76 N12G20    30.04R WCI -11
ELBOW LAKE     LGT SNOW  10   5  79 E13       30.05R WCI  -5
WADENA         MOCLDY     7   1  78 N9        30.03R WCI  -7
DETROIT LAKES  FAIR       9   3  78 N7        30.08R WCI  -3
MOORHEAD       FAIR       3  -2  78 N18       30.15R WCI -17
FERGUS FALLS   FLURRIES   9   1  72 N9        30.07R WCI  -5
MORRIS MN      LGT SNOW  10   7  85 N16       30.00F WCI  -7
STAPLES        CLOUDY     9   1  72 N8        30.03R WCI  -4
$$
  *****  WEATHER ELSEWHERE ACROSS MINNESOTA  *****

CITY           SKY/WX    TMP DP  RH WIND       PRES   REMARKS
DULUTH         CLOUDY    10   3  73 N13       30.00R WCI  -5
INTRNTL FALLS  FAIR       2  -2  83 N5        30.15R WCI  -8
ELY            FAIR       1  -4  78 N6        30.08R WCI -10
CLOQUET        CLOUDY    10   1  67 N9        30.00S WCI  -2
WHEATON        LGT SNOW   9   3  78 N17       30.09S WCI -10
BRAINERD       CLOUDY    10   1  67 N13       30.03R WCI  -5
HIBBING        CLOUDY     3  -2  79 N9        30.05R WCI -12
ALEXANDRIA     LGT SNOW  11   6  81 N17       30.00R WCI  -6
SAINT CLOUD    LGT SNOW  12   9  87 N12       29.98R FOG     WCI  -2
MINNEAPOLIS    CLOUDY    20  16  84 N18       29.88R WCI   5
$$

  *****  WEATHER ACROSS SOUTH DAKOTA  *****

CITY           SKY/WX    TMP DP  RH WIND       PRES   REMARKS
SIOUX FALLS    FRZ DRZL  15  11  83 N21G26    29.85S WCI  -2
BROOKINGS      FLURRIES  10   6  84 N20G30    29.88F WCI  -9
WATERTOWN      LGT SNOW   8   4  83 N20G32    29.94R FOG     WCI -11
HURON          CLOUDY     9   4  80 N22G31    30.00F WCI -11
SISSETON         N/A      8   4  83 N20       30.07R WCI -11
ABERDEEN       LGT SNOW   8   3  80 N21G26    30.09S WCI -12
MITCHELL       CLOUDY    12   7  80 N28G37    29.95F WCI  -9
PIERRE         LGT SNOW   7   3  84 N17       30.06R FOG     WCI -12
MOBRIDGE       CLOUDY     7   1  76 N12       30.05F WCI  -8
RAPID CITY     LGT SNOW   1  -3  83 N13       29.97R FOG     WCI -17
$$

  *****  SOME WEATHER IN NEARBY STATES *****

CITY           SKY/WX    TMP DP  RH WIND       PRES   REMARKS
GLASGOW MT     LGT SNOW  -5 -10  79 NW3       30.14S
GREAT FALLS MT CLOUDY    -5  -9  83 NW6       30.01S FOG     WCI -18
CHEYENNE WY    CLOUDY     2   0  91 NE8       29.63S WCI -12
SCOTTSBLUFF NE LGT SNOW   6   0  76 NE10      29.83S WCI  -9
OMAHA NE       FRZ DRZL  28  26  92 N18G29    29.72R WCI  15
DES MOINES IA  LGT RAIN  46  44  93 SE12      29.64S
DAVENPORT IA   CLOUDY    42  39  89 SE10      29.77F FOG
CHICAGO IL     LGT RAIN  39  37  92 S7        29.87F
EAU CLAIRE WI  CLOUDY    29  23  78 NE10G21   29.84R WCI  20
LA CROSSE WI   CLOUDY    34  30  85 CALM      29.78R
$$

  *****  SOME NATIONAL WEATHER *****

CITY           SKY/WX    TMP DP  RH WIND       PRES   REMARKS
LA GUARDIA NY  PTSUNNY   40  36  86 S6        30.52S
RALEIGH NC     LGT RAIN  41  40  96 CALM      30.48R FOG
ATLANTA GA     DRZL/FOG  60  60 100 E10       30.33R VSB 1/2
NEW ORLEANS LA FAIR      63  63 100 SE6       30.13S
OKLAHOMA CITY  MOCLDY    63  59  87 S21G31    29.72S
ALBUQUERQUE NM FAIR      43  34  70 S10       29.74R
SALT LAKE CITY SNOW      28  26  92 N20       29.45S VSB 1/2 WCI  15
LOS ANGELES CA MOCLDY    52  24  33 N12G21    29.85R
BOISE ID       CLOUDY    22  17  81 NW6       29.70R WCI  14
SEATTLE WA     CLOUDY    31  13  47 N25G32    30.09R WCI  17
$$

*** WEATHER ACROSS MANITOBA...SASKATCHEWAN AND ONTARIO ***
                ***ONTARIO***

CITY           SKY/WX    TMP DP  RH WIND       PRES   REMARKS
GERALDTON      PTCLDY    -4  -8  84 N6        30.12S WCI -16
THUNDER BAY    CLOUDY     5  -2  72 N6        30.12R WCI  -6
SIOUX LOOKOUT  MOCLDY   -13 -18  77 CALM      30.18R
TORONTO        MOCLDY    32  27  80 SE5       30.09F
BIG TROUT LK   CLEAR    -42 -51  60 W3        30.30
PICKLE LAKE    PTCLDY   -24 -29  76 N5        30.23R WCI -38
DRYDEN         MOCLDY    -9 -15  77 NE7       30.16R WCI -24
KENORA         MOCLDY    -9 -15  77 NE7       30.18R WCI -24
$$
                *** MANITOBA***

CITY           SKY/WX    TMP DP  RH WIND       PRES   REMARKS
BRANDON        PTCLDY   -20 -27  69 W3        30.26R
DAUPHIN        CLEAR    -26 -31  75 SW6       30.26R WCI -42
ISLAND LAKE    CLEAR    -44 -51  66 CALM      30.30S FOG
PILOT MOUND      N/A    -11 -15  84 NW3         N/A
THE PAS        PTCLDY   -26 -33  68 SE2       30.18F
THOMPSON       PTCLDY   -40 -47  67 S6        30.19F WCI -59
WINNIPEG       PTCLDY   -13 -18  77 N8        30.29F WCI -30
LYNN LAKE      MOCLDY   -27 -35  68 SW8       30.00S WCI -48
CHURCHILL      CLEAR    -33 -42  61 W10       30.15R WCI -57
GILLAM         PTCLDY   -36 -44  67 SW9       30.24R WCI -60
$$
                ***SASKATCHEWAN***

CITY           SKY/WX    TMP DP  RH WIND       PRES   REMARKS
ESTEVAN        MOCLDY   -18 -24  76 NW7       30.16F WCI -35
KINDERSLEY     MOCLDY   -15 -20  76 SW8       30.10S WCI -32
LLOYDMINSTER   CLOUDY    -4  -9  77 SW14      30.02S WCI -24
PRINCE ALBERT  CRYSTALS -33 -40  68 CALM      30.14F
REGINA         PTCLDY   -18 -24  76 W3        30.17R
YORKTON        CLOUDY    -8 -11  84 SW5       30.17R WCI -19
N. BATTLEFORD  CLEAR    -18 -24  76 S6        30.13R WCI -33
LA RONGE       CLEAR    -31 -36  75 S2        30.03F
SASKATOON      CLEAR    -18 -24  76 S7        30.15F WCI -35
SWIFT CURRENT  CLEAR    -15 -22  70 SW10      30.06F WCI -35
$$
NOTE: THESE ARE AUTOMATED STATIONS WITH LIMITED QUALITY CONTROL
      "FAIR" INDICATES FEW OR NO CLOUDS BELOW 12,000 FEET WITH NO
      SIGNIFICANT WEATHER AND/OR OBSTRUCTIONS TO VISIBILITY.
      SKY/WX - SKY CONDITION AND SIGNIFICANT WEATHER.
      TMP - AIR TEMPERATURE.    DP   - DEWPOINT TEMPERATURE.
      RH  - RELATIVE HUMIDITY.  PRES - PRESSURE.
      HX  - HEAT INDEX.         WCI  - WIND CHILL INDEX.
$



USA.gov is the U.S. government's official web portal to all federal, state and local government web resources and services.